[[{"header":{"parameterUnit":"m.s-1","parameterCategory":1,"la1":30.2991,"la2":30.254,"lo1":-89.0895,"lo2":-89.0444,"dy":0.0017,"dx":0.0017,"nx":28,"ny":28,"refTime":"2024-04-21T03:00:00:Z","depth":0,"parameterNumber":2,"parameterNumberName":"U-component_of_WINDS"},"data":[0,0,0,0,0,0,0,0,0,0,0,0,0,0,0,0,0,0,0,0,0,0,0,0,0,0,0,0,0,0,0,0,0,0,0,0,0,0,0,0,0,0,0,0,0,0,0,0,0,0,0,0,0,0,0,0,0,0,-1.6225,-1.6226,0,-1.6304,-1.6304,-1.6305,-1.6234,-1.6231,-1.6228,-1.6225,-1.6307,-1.6312,-1.6317,0,0,0,0,0,0,0,0,0,0,0,0,0,-1.6015,-1.6019,-1.6225,-1.6226,-1.6227,-1.6303,-1.6304,-1.6306,-1.6234,-1.623,-1.6227,-1.6224,-1.6306,-1.6311,-1.6317,0,0,0,0,0,0,0,0,0,0,0,0,0,-1.6101,-1.602,-1.6225,-1.6201,-1.6199,-1.6303,-1.6304,-1.6306,-1.6235,-1.623,-1.6226,-1.6222,-1.6304,-1.6311,-1.6318,-1.6451,0,0,-1.6341,-1.6344,0,0,0,0,0,0,0,0,-1.6096,-1.6109,-1.6203,-1.6202,-1.6201,-1.6254,-1.626,-1.6355,-1.6236,-1.6221,-1.6225,-1.622,-1.6293,-1.6301,-1.6326,-1.6455,-1.6458,-1.6341,-1.6346,-1.6349,-1.6351,0,0,0,0,0,0,0,-1.609,-1.6105,-1.6256,-1.6205,-1.6203,-1.6186,-1.6193,-1.6278,-1.6281,-1.6222,-1.6217,-1.6227,-1.6292,-1.6319,-1.6327,-1.6459,-1.6341,-1.6348,-1.6352,-1.6355,-1.6702,-1.6706,0,0,0,0,0,0,-1.6087,-1.6101,-1.6254,-1.6259,-1.6137,-1.6193,-1.6202,-1.6242,-1.628,-1.6281,-1.6231,-1.6224,-1.6308,-1.6318,-1.633,-1.6489,-1.6349,-1.6356,-1.636,-1.6697,-1.6703,-1.6708,0,0,0,0,0,0,-1.6082,-1.6101,-1.6251,-1.6178,-1.6196,-1.6202,-1.6247,-1.6245,-1.6272,-1.6286,-1.6287,-1.6258,-1.6305,-1.6319,-1.6421,-1.649,-1.6359,-1.6366,-1.6691,-1.6699,-1.6705,-1.6807,0,0,0,0,0,0,-1.6077,-1.61,-1.615,-1.618,-1.62,-1.6341,-1.6251,-1.625,-1.6285,-1.6276,-1.6312,-1.6313,-1.6303,-1.6411,-1.6429,-1.6498,-1.6371,-1.6685,-1.6695,-1.6703,-1.6798,-1.6817,-1.6834,0,0,0,0,0,-1.6069,-1.6176,-1.6153,-1.6172,-1.6263,-1.6345,-1.6357,-1.6342,-1.6291,-1.6342,-1.6351,-1.6312,-1.6479,-1.6422,-1.6441,-1.6514,-1.6681,-1.6692,-1.6702,-1.679,-1.6813,-1.6833,0,0,0,0,0,0,-1.6156,-1.618,-1.6155,-1.6274,-1.6308,-1.6333,-1.6397,-1.6367,-1.6417,-1.6407,-1.6387,-1.6395,-1.6503,-1.6518,-1.6454,-1.6645,-1.6572,-1.6587,-1.6632,-1.6654,-1.6672,-1.6667,-1.6378,0,0,0,0,0,-1.6189,-1.6253,-1.627,-1.6374,-1.6392,-1.6392,-1.6427,-1.6412,-1.6447,-1.6461,-1.6478,-1.6513,-1.6573,-1.6614,-1.667,-1.6798,-1.6806,-1.6858,-1.6876,-1.689,-1.6905,-1.6975,-1.6998,-1.6743,-1.6743,-1.6743,0,0,-1.6258,-1.6279,-1.6321,-1.6392,-1.6417,-1.6484,-1.6405,-1.6479,-1.653,-1.6473,-1.6571,-1.6583,-1.6622,-1.6738,-1.6789,-1.6754,-1.6976,-1.6904,-1.6916,-1.6922,-1.6988,-1.7012,-1.7034,-1.6751,-1.6749,-1.6748,0,0,-1.6419,-1.644,-1.653,-1.6556,-1.6593,-1.6592,-1.6613,-1.6642,-1.6649,-1.6746,-1.6705,-1.6764,-1.6868,-1.6897,-1.6926,-1.7096,-1.7063,-1.7114,-1.7209,-1.7277,-1.7297,-1.7315,-1.7378,-1.74,-1.7128,-1.7128,-1.7128,0,-1.6501,-1.66,-1.658,-1.6658,-1.6691,-1.664,-1.6731,-1.6757,-1.6812,-1.6836,-1.6794,-1.6924,-1.6946,-1.7069,-1.711,-1.7134,-1.7159,-1.7112,-1.7296,-1.7313,-1.733,-1.7389,-1.7413,-1.7134,-1.7133,-1.7133,-1.7132,0,-1.67,-1.6769,-1.6837,-1.689,-1.693,-1.7014,-1.7007,-1.705,-1.7031,-1.7034,-1.7134,-1.7158,-1.7218,-1.7245,-1.7228,-1.7366,-1.7342,-1.7299,-1.7226,-1.7361,-1.7416,-1.7439,-1.7143,-1.7141,-1.7139,-1.7137,0,0,-1.6921,-1.696,-1.6986,-1.7009,-1.7046,-1.71,-1.7181,-1.724,-1.7278,-1.7316,-1.7385,-1.7473,-1.7433,-1.7465,-1.745,-1.7509,-1.7644,-1.7458,-1.7459,-1.7494,-1.7799,-1.7834,-1.7861,-1.7621,-1.7625,-1.7628,-1.7797,0,-1.7085,-1.7226,-1.7209,-1.7345,-1.741,-1.7362,-1.7433,-1.7463,-1.7468,-1.7523,-1.7527,-1.7592,-1.7532,-1.7551,-1.7608,-1.7616,-1.7706,-1.7603,-1.7686,-1.769,-1.7682,-1.789,-1.7927,-1.8085,-1.7818,-1.7822,-1.7824,0,-1.7296,-1.7342,-1.7484,-1.7511,-1.7537,-1.7601,-1.7654,-1.7707,-1.774,-1.7739,-1.7774,-1.7748,-1.783,-1.7753,-1.7866,-1.7796,-1.7829,-1.7838,-1.7843,-1.7853,-1.7768,-1.7908,-1.8135,-1.816,-1.7858,-1.7855,-1.7853,0,-1.7447,-1.7543,-1.7641,-1.7662,-1.7695,-1.7741,-1.7757,-1.7786,-1.7822,-1.7867,-1.7891,-1.7945,-1.7975,-1.8018,-1.8007,-1.7951,-1.8123,-1.8045,-1.8126,-1.8127,-1.8168,-1.8166,-1.8406,-1.8184,-1.8183,-1.8183,-1.8182,0,-1.7634,-1.7723,-1.7709,-1.7769,-1.7868,-1.7846,-1.7945,-1.7954,-1.798,-1.8042,-1.8003,-1.8062,-1.8042,-1.81,-1.8092,-1.8188,-1.8201,-1.8204,-1.8201,-1.8209,-1.8209,-1.8233,-1.8223,-1.8189,-1.8188,-1.8186,-1.8185,0,-1.782,-1.7813,-1.7917,-1.7939,-1.7947,-1.8019,-1.8038,-1.8095,-1.8094,-1.8173,-1.819,-1.8191,-1.8257,-1.8249,-1.8323,-1.8317,-1.8437,-1.842,-1.8427,-1.8424,-1.8507,-1.85,-1.8773,-1.8808,-1.856,-1.8563,-1.8565,0,-1.7941,-1.8009,-1.8038,-1.8076,-1.8095,-1.8157,-1.8194,-1.8174,-1.8214,-1.8256,-1.8308,-1.837,-1.8419,-1.8527,-1.8534,-1.8591,-1.8576,-1.8667,-1.8585,-1.8591,-1.8581,-1.8578,-1.8585,-1.8685,-1.8688,-1.869,-1.8692,0,-1.8159,-1.8152,-1.8205,-1.8258,-1.8302,-1.8343,-1.838,-1.8413,-1.8397,-1.8443,-1.851,-1.8548,-1.8623,-1.8686,-1.8738,-1.8754,-1.8722,-1.8717,-1.874,-1.8751,-1.8753,-1.8755,-1.8475,-1.8712,-1.871,-1.8709,-1.8708,-1.8707,-1.8318,-1.8376,-1.8406,-1.8467,-1.8492,-1.8526,-1.8581,-1.8587,-1.8643,-1.8702,-1.8686,-1.8762,-1.8793,-1.886,-1.8882,-1.8941,-1.8907,-1.8939,-1.8948,-1.8957,-1.8968,-1.874,-1.895,-1.8949,-1.8949,-1.8948,-1.8948,0,-1.8535,-1.8551,-1.8607,-1.866,-1.8708,-1.867,-1.8708,-1.8751,-1.8818,-1.8849,-1.8898,-1.8974,-1.9034,-1.9045,-1.9103,-1.9148,-1.9134,-1.9164,-1.9162,-1.9167,-1.8993,-1.8969,-1.9174,-1.9174,-1.9174,-1.9174,-1.9174,-1.9174,-1.8654,-1.8751,-1.8748,-1.8856,-1.8871,-1.8945,-1.897,-1.9002,-1.9027,-1.9114,-1.9164,-1.917,-1.9193,-1.9251,-1.9305,-1.9306,-1.933,-1.9367,-1.9363,-1.9201,-1.9179,-1.9157,-1.9135,-1.9371,-1.9371,-1.9532,-1.9533,-1.9534]},{"header":{"parameterUnit":"m.s-1","parameterCategory":1,"la1":30.2991,"la2":30.254,"lo1":-89.0895,"lo2":-89.0444,"dy":0.0017,"dx":0.0017,"nx":28,"ny":28,"refTime":"2024-04-21T03:00:00:Z","depth":0,"parameterNumber":3,"parameterNumberName":"V-component_of_WINDS"},"data":[0,0,0,0,0,0,0,0,0,0,0,0,0,0,0,0,0,0,0,0,0,0,0,0,0,0,0,0,0,0,0,0,0,0,0,0,0,0,0,0,0,0,0,0,0,0,0,0,0,0,0,0,0,0,0,0,0,0,-6.7823,-6.7825,0,-6.7945,-6.7946,-6.7947,-6.7846,-6.7841,-6.7837,-6.7833,-6.7951,-6.7958,-6.7965,0,0,0,0,0,0,0,0,0,0,0,0,0,-6.7498,-6.7505,-6.7823,-6.7825,-6.7826,-6.7944,-6.7946,-6.7948,-6.7846,-6.7841,-6.7836,-6.7831,-6.7949,-6.7957,-6.7966,0,0,0,0,0,0,0,0,0,0,0,0,0,-6.7631,-6.7507,-6.7823,-6.779,-6.7789,-6.7944,-6.7946,-6.7948,-6.7848,-6.7841,-6.7835,-6.7829,-6.7946,-6.7957,-6.7967,-6.8159,0,0,-6.8,-6.8004,0,0,0,0,0,0,0,0,-6.7624,-6.7643,-6.7794,-6.7793,-6.7791,-6.7874,-6.7874,-6.8019,-6.7849,-6.7825,-6.7833,-6.7826,-6.793,-6.7942,-6.7978,-6.8165,-6.817,-6.8,-6.8007,-6.8012,-6.8015,0,0,0,0,0,0,0,-6.7615,-6.7637,-6.7871,-6.7796,-6.7794,-6.7767,-6.7779,-6.7901,-6.7911,-6.7827,-6.782,-6.7836,-6.7928,-6.7968,-6.798,-6.8172,-6.8,-6.801,-6.8016,-6.802,-6.8521,-6.8527,0,0,0,0,0,0,-6.761,-6.763,-6.7867,-6.7875,-6.769,-6.7778,-6.7792,-6.7853,-6.791,-6.7913,-6.7841,-6.783,-6.7953,-6.7968,-6.7984,-6.8212,-6.8011,-6.8021,-6.8027,-6.8514,-6.8522,-6.853,0,0,0,0,0,0,-6.7603,-6.7632,-6.7862,-6.7751,-6.7778,-6.7791,-6.7861,-6.7859,-6.7899,-6.7921,-6.7921,-6.788,-6.7949,-6.7969,-6.8117,-6.8215,-6.8026,-6.8036,-6.8506,-6.8516,-6.8526,-6.8671,0,0,0,0,0,0,-6.7594,-6.763,-6.7705,-6.7753,-6.7785,-6.7996,-6.7867,-6.7866,-6.7918,-6.7906,-6.7958,-6.796,-6.7945,-6.8101,-6.8127,-6.8226,-6.8044,-6.8497,-6.851,-6.8523,-6.8657,-6.8685,-6.8709,0,0,0,0,0,-6.7583,-6.774,-6.7709,-6.7738,-6.7879,-6.8001,-6.8019,-6.8,-6.7927,-6.8001,-6.8015,-6.7959,-6.82,-6.8117,-6.8146,-6.8249,-6.8491,-6.8507,-6.8522,-6.8646,-6.8679,-6.8708,0,0,0,0,0,0,-6.7701,-6.7746,-6.7712,-6.789,-6.7943,-6.7984,-6.8077,-6.8037,-6.811,-6.8095,-6.8066,-6.8079,-6.8235,-6.8256,-6.8163,-6.8437,-6.8333,-6.8355,-6.8418,-6.845,-6.8475,-6.8466,-6.8053,0,0,0,0,0,-6.7748,-6.7846,-6.7879,-6.8032,-6.806,-6.8065,-6.8117,-6.8099,-6.8151,-6.8173,-6.8197,-6.8249,-6.8336,-6.8394,-6.8476,-6.866,-6.8669,-6.8745,-6.877,-6.8791,-6.881,-6.8908,-6.8942,-6.8581,-6.8581,-6.858,0,0,-6.7845,-6.7881,-6.7945,-6.8057,-6.8095,-6.8195,-6.8084,-6.8195,-6.8268,-6.8189,-6.833,-6.835,-6.8405,-6.8572,-6.8647,-6.8595,-6.8912,-6.8811,-6.8828,-6.8835,-6.8928,-6.8962,-6.8992,-6.8591,-6.8589,-6.8588,0,0,-6.8073,-6.8112,-6.8244,-6.8285,-6.8346,-6.8348,-6.8379,-6.8427,-6.8438,-6.858,-6.8522,-6.8607,-6.8759,-6.8801,-6.8842,-6.9086,-6.9037,-6.9113,-6.9247,-6.9342,-6.9371,-6.9396,-6.9482,-6.9514,-6.9132,-6.9133,-6.9133,0,-6.8186,-6.8337,-6.8316,-6.8432,-6.8481,-6.8416,-6.8548,-6.8588,-6.8672,-6.8707,-6.8649,-6.8837,-6.887,-6.9045,-6.9105,-6.914,-6.9174,-6.9107,-6.9369,-6.9394,-6.9417,-6.9499,-6.9531,-6.9141,-6.914,-6.9139,-6.9139,0,-6.8472,-6.8578,-6.8676,-6.8761,-6.8822,-6.8945,-6.8941,-6.9005,-6.898,-6.8988,-6.9132,-6.9169,-6.9257,-6.9297,-6.9273,-6.9469,-6.9434,-6.9373,-6.9268,-6.9461,-6.9537,-6.9568,-6.9154,-6.9151,-6.9148,-6.9146,0,0,-6.8779,-6.885,-6.8887,-6.8924,-6.8986,-6.9066,-6.9185,-6.9273,-6.9328,-6.9387,-6.9486,-6.9615,-6.9559,-6.9605,-6.9586,-6.967,-6.986,-6.9598,-6.9598,-6.9645,-7.0076,-7.0122,-7.0159,-6.9828,-6.9834,-6.9838,-7.0071,0,-6.9009,-6.922,-6.9204,-6.9401,-6.9497,-6.9436,-6.9539,-6.9588,-6.9597,-6.9678,-6.9688,-6.978,-6.9699,-6.9727,-6.9807,-6.982,-6.9946,-6.9803,-6.9917,-6.9922,-6.9905,-7.0199,-7.0248,-7.0466,-7.0101,-7.0106,-7.011,0,-6.9307,-6.9379,-6.9587,-6.9634,-6.9674,-6.9768,-6.9846,-6.9925,-6.9978,-6.9978,-7.0031,-6.9997,-7.0115,-7.0007,-7.0168,-7.0071,-7.0117,-7.013,-7.0138,-7.0148,-7.0027,-7.0216,-7.0535,-7.0568,-7.0157,-7.0153,-7.015,0,-6.9509,-6.9658,-6.9801,-6.9835,-6.9894,-6.9961,-6.9988,-7.0035,-7.0088,-7.0156,-7.019,-7.027,-7.0314,-7.0376,-7.0363,-7.0286,-7.0528,-7.0419,-7.053,-7.0531,-7.0583,-7.058,-7.0914,-7.0614,-7.0613,-7.0613,-7.0612,0,-6.9769,-6.9898,-6.9893,-6.9981,-7.0123,-7.0103,-7.0243,-7.0262,-7.0304,-7.0393,-7.0344,-7.0428,-7.0407,-7.049,-7.0481,-7.0615,-7.0635,-7.0638,-7.0634,-7.0643,-7.0642,-7.0672,-7.0656,-7.0621,-7.0619,-7.0618,-7.0616,0,-7.0018,-7.0021,-7.0173,-7.0216,-7.023,-7.0333,-7.0369,-7.0451,-7.0457,-7.057,-7.0595,-7.0604,-7.0699,-7.0693,-7.0799,-7.0793,-7.0959,-7.0937,-7.0942,-7.0937,-7.1048,-7.1038,-7.1413,-7.146,-7.113,-7.1133,-7.1135,0,-7.0184,-7.0282,-7.0337,-7.0394,-7.0426,-7.0519,-7.0574,-7.0556,-7.0615,-7.0682,-7.0756,-7.0847,-7.0919,-7.1073,-7.1087,-7.1168,-7.1147,-7.1273,-7.1159,-7.1164,-7.1148,-7.1143,-7.1152,-7.1295,-7.1299,-7.1302,-7.1304,0,-7.0477,-7.0473,-7.0555,-7.0638,-7.0705,-7.0769,-7.0827,-7.0876,-7.0864,-7.0932,-7.103,-7.1086,-7.1196,-7.1286,-7.1363,-7.1388,-7.1345,-7.134,-7.137,-7.138,-7.1378,-7.138,-7.1003,-7.1332,-7.1329,-7.1327,-7.1325,-7.1324,-7.0689,-7.0774,-7.0826,-7.0918,-7.096,-7.1016,-7.1095,-7.1111,-7.1193,-7.1283,-7.1267,-7.1376,-7.1424,-7.1524,-7.1556,-7.164,-7.1595,-7.1638,-7.1649,-7.166,-7.1673,-7.1366,-7.1654,-7.1653,-7.1652,-7.1652,-7.1651,0,-7.0979,-7.101,-7.1096,-7.1179,-7.1252,-7.1206,-7.1268,-7.1331,-7.1429,-7.1478,-7.1551,-7.1662,-7.1749,-7.1771,-7.1854,-7.1916,-7.1898,-7.1939,-7.1934,-7.194,-7.1709,-7.1674,-7.1952,-7.1952,-7.1952,-7.1952,-7.1952,-7.1952,-7.1139,-7.1279,-7.1281,-7.1441,-7.147,-7.1578,-7.1617,-7.1667,-7.1707,-7.1835,-7.1908,-7.1922,-7.196,-7.2045,-7.2122,-7.2126,-7.2158,-7.2207,-7.2203,-7.1986,-7.1956,-7.1927,-7.1895,-7.2214,-7.2215,-7.2427,-7.2429,-7.243]}]]